Zurück zum Katalog

NOAA 16 DEB

AktivSSO
NORAD 42408·DEBRIS·🇺🇸 United States

Gestartet Sep 21, 2000 von Vandenberg Space Force Base

Loading…

Nächste Überflüge (nächste 24 Stunden)

TLE

AktuellSource: Space-Track

Epoche: Sep 14, 2026, 03:16 UTC

1 42408U 00055TC  26257.13625443  .00002131  00000-0  93254-3 0  9991
2 42408  98.7164 317.2173 0016164 258.3022 101.6343 14.24746134540439

Verfolge NOAA 16 DEB in Echtzeit mit AllMySat

Download on the App Store